Probability
0 0 0 0 0 0 0 0 0 0 0 0 0 0 0 0 0 0 0 0 0 0 0 0 0 0 0 0 0 0 0 0 0 0 0 0 0 0 0 0 0 0 0
0 0 0 0 0 0 0 0 0 0 0 0 0 0 0 0 0 0 0 0 0 0 0 0 0 0 0 0 0 0 0 0 0 0 0 0 0 0 0 0 0 0 0
0 0 0 0 0 0 0 0 0 0 0 0 0 0 0 0 0 0 0 0 0 0 0 0 0 0 0 0 0 0 0 0 0 0 0 0 0 0 0 0 0 0 0
0 0 0 0 0 0 0 0 0 0 0 0 0 0 0 0 0 0 0 0 0 0 0 0 0 0 0 0 0 0 0 0 0 0 0 0 0 0 0 0 0 0 0
0 0 0 0 0 0 0 0 0 0 0 0 0 0 0 0 0 0 0 0 0 0 0 0 0 0 0 0 0 0 0 0 0 0 0 0 0 0 0 0 0 0 0
0 0 0 0 0 0 0 0 0 0 0 0 0 0 0 0 0 0 0 0 0 0 0 0 0 0 0 0 0 0 0 0 0 0 0 0 0 0 0 0 0 0 0
0 0 0 0 0 0 0 0 0 0 0 0 0 0 0 0 0 0 0 0 0 0 0 0 0 0 0 0 0 0 0 0 0 0 0 0 0 0 0 0 0 0 0
0 0 0 0 0 0 0 0 0 0 0 0 0 0 0 0 0 0 0 0 0 0 0 0 0 0 0 0 0 0 0 0 0 0 0 0 0 0 0 0 0 0 0
0 0 0 0 0 0 0 0 0 0 0 0 0 0 0 0 0 0 0 0 0 0 0 0 0 0 0 0 0 0 0 0 0 0 0 0 0 0 0 0 0 0 0
0 0 0 0 0 0 0 0 0 0 0 0 0 0 0 0 0 0 0 0 0 0 0 0 0 0 0 0 0 0 0 0 0 0 0 0 0 0 0 0 0 0 0
0 0 0 0 0 0 0 0 0 0 0 0 0 0 0 0 0 0 0 0 0 0 0 0 0 0 0 0 0 0 0 0 0 0 0 0 0 0 0 0 0 0 0
0 0 0 0 0 0 0 0 0 0 0 0 0 0 0 0 0 0 0 0 0 0 0 0 0 0 0 0 0 0 0 0 0 0 0 0 0 0 0 0 0 0 0
0 0 0 0 0 0 0 0 0 0 0 0 0 0 0 0 0 0 0 0 0 0 0 0 0 0 0 0 0 0 0 0 0 0 0 0 0 0 0 0 0 0 0
0 0 0 0 0 0 0 0 0 0 0 0 0 0 0 0 0 0 0 0 0 0 0 0 0 0 0 0 0 0 0 0 0 0 0 0 0 0 0 0 0 0 0
0 0 0 0 0 0 0 0 0 0 0 0 0 0 0 0 0 0 0 0 0 0 0 0 0 0 0 0 0 0 0 0 0 0 0 0 0 0 0 0 0 0 0
0 0 0 0 0 0 0 0 0 0 0 0 0 0 0 0 0 0 0 0 0 0 0 0 0 0 0 0 0 0 0 0 0 0 0 0 0 0 0 0 0 0 0
0 0 0 0 0 0 0 0 0 0 0 0 0 0 0 0 0 0 0 0 0 0 0 0 0 0 0 0 0 0 0 0 0 0 0 0 0 0 0 0 0 0 0
0 0 0 0 0 0 0 0 0 0 0 0 0 0 0 0 0 0 0 0 0 0 0 0 0 0 0 0 0 0 0 0 0 0 0 0 0 0 0 0 0 0 0
0 0 0 0 0 0 0 0 0 0 0 0 0 0 0 0 0 0 0 0 0 0 0 0 0 0 0 0 0 0 0 0 0 0 0 0 0 0 0 0 0 0 0
0 0 0 0 0 0 0 0 0 0 0 0 0 0 0 0 0 0 0 0 0 0 0 0 0 0 0 0 0 0 0 0 0 0 0 0 0 0 0 0 0 0 0
0 0 0 0 0 0 0 0 0 0 0 0 0 0 0 0 0 0 0 0 0 0 0 0 0 0 0 0 0 0 0 0 0 0 0 0 0 0 0 0 0 0 0
0 0 0 0 0 0 0 0 0 0 0 0 0 0 0 0 0 0 0 0 0 0 0 0 0 0 0 0 0 0 0 0 0 0 0 0 0 0 0 0 0 0 0
0 0 0 0 0 0 0 0 0 0 0 0 0 0 0 0 0 0 0 0 0 0 0 0 0 0 0 0 0 0 0 0 0 0 0 0 0 0 0 0 0 0 0
0 0 0 0 0 0 0 0 0 0 0 0 0 0 0 0 0 0 0 0 0 0 0 0 0 0 0 0 0 0 0 0 0 0 0 0 0 0 0 0 0 0 0
0 0 0 0 0 0 0 0 0 0 0 0 0 0 0 0 0 0 0 0 0 0 0 0 0 0 0 0 0 0 0 0 0 0 0 0 0 0 0 0 0 0 0
0 0 0 0 0 0 0 0 0 0 0 0 0 0 0 0 0 0 0 0 0 0 0 0 0 0 0 0 0 0 0 0 0 0 0 0 0 0 0 0 0 0 0
Wind_Speed
2 3 5 6 6 5 5 6 6 4 4 3 3 2 1 1 1 1 1 2 2 3 3 2 3 3 2 3 3 3 4 3 3 3 3 4 3 4 3 3 2 2 1
3 4 5 5 5 5 5 5 6 5 4 3 2 2 2 1 0 1 1 1 1 1 2 2 2 2 2 4 4 3 3 3 3 2 2 4 5 4 4 3 3 2 2
6 5 5 4 4 5 5 6 5 5 4 4 3 3 3 3 2 2 1 1 1 0 1 2 2 2 1 2 3 2 3 2 3 2 2 2 1 3 4 4 3 3 2
4 4 4 4 4 4 4 5 5 5 4 4 4 3 2 0 1 1 1 2 1 1 1 1 1 1 1 1 2 2 1 2 2 2 2 1 2 0 2 3 3 4 3
5 5 4 4 4 4 5 5 5 5 4 4 4 4 2 1 1 1 1 2 2 2 1 1 1 1 1 1 2 2 2 1 1 1 1 2 2 1 1 2 4 3 3
5 4 3 4 5 4 5 5 5 4 3 4 3 3 2 1 1 1 1 2 2 2 2 1 0 0 0 1 1 1 1 1 1 1 1 1 1 0 1 1 2 2 3
5 5 5 4 4 5 5 5 5 4 3 3 2 2 2 1 0 1 0 1 1 2 3 2 1 1 1 1 0 1 1 1 1 1 0 0 1 1 1 1 1 1 2
5 5 4 4 4 5 5 5 5 3 2 2 2 1 1 1 0 0 0 0 1 2 2 2 2 2 2 1 0 1 1 1 1 1 1 1 1 1 1 2 1 1 2
5 5 4 4 4 4 4 4 5 3 2 2 2 2 1 1 1 1 1 1 1 1 1 1 1 2 2 1 0 1 2 1 1 1 1 1 1 1 1 1 2 2 1
5 4 4 3 3 3 4 4 4 4 2 2 2 2 1 1 1 2 2 2 2 2 2 2 2 2 2 1 1 1 2 1 2 1 1 2 1 1 1 1 1 2 3
6 5 4 3 4 4 4 4 3 3 3 2 2 3 2 2 2 2 2 2 2 2 2 2 2 2 2 2 1 2 2 2 2 2 2 3 2 1 1 1 1 1 2
5 5 4 4 4 4 4 4 3 3 2 2 3 3 2 2 3 2 3 3 3 3 3 2 2 2 2 2 1 3 2 2 3 3 3 3 2 2 2 1 2 2 2
6 5 5 4 4 4 4 3 3 3 2 3 4 3 3 3 3 3 3 3 3 3 3 3 3 3 2 2 2 2 2 2 3 3 3 4 3 3 3 3 3 2 2
7 6 4 4 3 3 3 3 3 3 3 4 4 4 3 2 2 3 3 3 3 3 4 4 3 3 3 2 2 2 2 2 3 3 3 4 3 4 4 3 4 3 2
7 7 5 4 4 4 3 3 3 3 4 5 4 2 2 2 3 3 3 4 4 4 4 4 4 4 3 4 4 3 2 2 3 4 3 4 5 6 4 3 3 3 3
8 7 6 6 5 4 4 3 3 3 4 4 3 2 3 3 3 3 3 4 4 4 4 4 4 5 5 8 8 5 3 3 3 4 4 5 5 7 8 8 7 5 4
9 8 7 6 5 5 4 4 3 3 4 4 3 2 3 3 3 4 4 4 4 4 4 4 4 4 6 10 9 8 3 3 3 4 4 5 5 5 4 6 7 7 9
9 8 7 6 4 4 4 4 4 4 4 3 2 2 2 2 3 3 4 3 3 3 3 4 4 4 7 11 11 10 4 3 4 4 4 5 6 5 5 4 5 6 6
9 7 7 6 6 5 5 6 5 4 4 2 1 1 1 2 3 3 3 3 2 3 3 3 4 4 7 11 11 10 3 4 5 5 5 5 6 10 9 5 6 7 7
8 8 7 7 6 5 6 7 5 4 2 1 0 1 1 1 2 2 2 2 2 2 3 4 4 4 5 10 13 11 3 4 5 5 5 8 9 12 11 6 6 8 8
9 9 8 7 6 5 6 6 4 2 2 1 1 1 2 2 1 2 2 2 2 3 4 4 4 4 6 9 12 12 4 4 5 5 5 6 12 14 14 11 7 11 10
9 9 8 6 5 5 6 5 3 3 2 1 1 1 2 2 2 2 2 3 2 3 4 4 5 4 5 7 10 13 11 10 5 6 6 7 14 15 15 11 12 15 11
9 7 8 7 5 5 6 5 3 3 2 1 0 1 2 2 2 2 2 2 2 2 3 3 4 5 4 6 12 13 14 13 7 6 11 13 15 14 11 13 15 12 6
8 7 8 7 5 4 5 5 4 3 3 1 1 1 1 2 3 2 1 1 2 3 3 4 4 5 5 5 5 5 6 8 8 7 10 14 13 10 10 10 8 6 6
7 7 8 7 6 5 5 4 4 4 3 2 2 2 2 2 2 3 3 3 4 4 4 4 4 4 5 7 11 8 6 6 7 8 5 4 5 5 5 5 5 5 5
7 7 7 7 6 5 5 4 4 4 4 2 2 2 2 2 2 3 4 6 6 9 10 9 8 6 9 13 14 14 14 14 14 9 5 6 6 6 7 7 6 5 6
Wind_Direction
168 138 141 142 140 139 138 138 133 133 122 105 100 93 82 62 49 38 81 75 62 54 56 34 18 20 24 8 2 1 2 355 354 18 359 353 7 22 18 9 13 5 2
117 121 126 132 143 146 140 136 138 137 134 128 129 130 124 118 136 345 18 44 68 42 57 48 28 21 21 15 13 20 11 353 12 42 36 4 354 355 6 5 17 9 12
142 139 127 133 139 142 152 150 146 137 127 114 92 68 49 33 20 0 330 307 266 354 35 41 46 33 38 14 5 22 34 4 353 40 88 78 334 322 338 357 6 3 11
140 138 130 129 141 152 145 139 136 127 120 111 107 110 110 121 252 256 272 295 293 284 321 18 41 39 29 7 355 37 36 43 5 354 25 129 174 81 336 335 348 355 1
142 135 133 132 122 119 124 127 125 120 119 114 118 115 113 200 280 306 317 314 316 303 288 314 24 21 7 352 360 13 30 48 47 7 355 15 33 68 111 323 330 342 340
124 122 113 100 90 95 107 113 116 113 116 116 118 123 126 120 23 359 343 320 316 313 296 276 298 300 299 322 336 358 20 20 35 36 44 65 45 337 113 264 307 319 316
121 112 107 104 103 106 112 116 116 109 112 113 116 133 144 140 161 272 285 309 310 300 289 278 258 258 263 262 319 355 349 347 3 338 305 257 235 214 175 167 285 320 313
118 117 120 121 119 117 118 118 119 116 118 116 112 98 99 100 98 261 226 248 250 259 282 286 270 264 269 275 304 338 315 334 327 311 293 291 284 247 195 177 155 351 331
125 119 115 114 118 119 126 131 126 115 118 127 108 71 66 74 47 8 11 334 303 300 307 321 302 290 289 284 260 299 299 307 294 292 294 289 280 274 234 189 169 162 262
122 117 114 116 119 120 117 114 117 119 111 108 102 85 69 57 41 32 9 349 330 326 335 335 321 303 297 292 293 292 299 314 298 286 293 295 283 294 282 213 199 178 181
136 129 122 117 110 101 98 99 100 96 91 93 86 73 58 49 47 32 354 338 336 339 336 323 318 305 292 288 291 287 298 301 299 301 285 277 268 273 281 262 216 200 182
140 130 120 108 98 96 93 94 92 92 95 95 89 82 65 52 43 15 346 345 342 337 330 333 334 325 312 296 287 294 302 290 288 292 290 282 277 264 260 248 246 235 211
134 119 111 111 113 111 104 97 91 93 90 86 81 69 52 42 25 1 348 352 353 352 349 351 341 330 321 306 287 273 283 286 280 280 274 275 274 269 262 248 243 244 242
144 135 131 131 126 118 111 102 88 85 88 82 75 61 39 27 8 357 355 351 354 359 352 351 338 327 319 315 301 293 290 293 294 285 275 274 261 257 259 258 249 243 247
151 152 151 147 133 117 107 100 92 82 86 85 75 60 35 29 20 9 356 352 357 357 348 352 349 343 337 342 336 308 300 288 299 303 293 281 275 270 261 258 249 242 242
161 157 153 148 145 139 129 113 103 99 92 87 75 50 38 30 15 359 357 358 352 349 358 357 352 350 348 345 346 351 312 291 289 297 301 299 291 289 279 273 257 231 231
161 159 157 156 155 153 142 133 132 110 97 92 76 54 44 30 2 359 5 354 341 347 348 343 345 336 329 343 347 347 341 308 295 290 297 308 309 299 291 289 284 265 252
160 158 154 147 144 140 131 122 110 104 98 85 64 42 39 19 0 4 356 340 335 340 337 336 335 333 339 347 343 335 331 312 303 292 280 281 287 292 287 283 287 280 273
157 155 152 141 133 129 125 109 99 99 94 85 62 29 34 17 3 354 337 333 343 341 334 334 336 336 331 344 345 344 324 309 301 299 302 298 289 295 299 284 276 282 282
145 142 136 124 125 131 121 109 108 105 109 138 170 341 4 7 342 326 321 325 332 326 330 330 325 324 319 334 344 345 328 312 305 302 298 300 303 305 304 287 272 274 278
143 139 133 132 142 141 122 117 120 147 190 177 81 12 348 328 311 321 320 325 334 338 333 323 317 314 310 322 332 335 330 309 303 301 298 296 307 306 301 293 271 267 276
142 141 136 140 147 143 131 131 158 194 177 124 62 354 336 334 2 351 335 336 341 335 325 323 320 312 311 316 322 327 323 317 301 292 289 292 304 306 303 295 284 283 284
150 146 144 146 155 157 146 153 191 185 152 119 31 324 333 336 337 336 330 331 332 324 314 313 310 310 311 315 323 326 324 317 306 292 295 298 300 301 299 291 290 288 274
154 149 147 154 170 178 171 177 186 172 150 162 246 285 309 314 318 315 302 303 304 305 305 305 301 301 304 304 307 310 315 315 311 302 301 302 297 289 284 292 292 279 262
156 155 160 169 181 183 188 193 185 165 164 192 232 257 264 274 291 290 271 269 259 256 275 275 272 288 298 294 302 309 309 306 298 306 302 303 306 303 299 292 283 278 276
159 160 166 173 183 185 195 203 191 175 173 200 231 238 249 262 268 283 299 289 279 291 292 285 281 276 277 294 305 308 309 309 308 310 300 299 298 294 293 294 293 283 273